Presure
195 194 197 193 170 167 163 167 175 192 185 191 175 169 169 176 170 175 183 185 187 190 219 238 205 242 225 239 245 244 248 238 241 191 230 240 268 266 251 255 250 193 179 173 159 138 153
202 221 219 184 187 178 194 204 190 184 191 197 187 177 178 183 184 183 185 187 224 233 219 213 216 193 198 201 198 192 185 208 210 185 183 196 231 228 233 218 247 250 200 261 234 143 135
221 210 202 202 203 189 172 188 189 169 176 173 161 175 173 181 185 188 232 235 213 210 184 202 201 199 196 200 173 207 201 182 177 203 194 184 211 184 204 232 200 204 198 214 233 238 238
141 140 206 201 198 195 195 195 191 186 185 190 191 190 195 200 214 225 196 191 184 200 201 202 192 192 159 190 193 193 193 202 194 203 189 204 183 200 195 206 190 180 188 184 212 224 219
192 188 164 142 151 149 172 201 201 202 206 205 208 214 235 208 174 171 168 197 177 188 181 173 186 188 155 198 200 211 183 183 193 199 196 189 202 199 201 200 198 202 203 195 200 220 192
175 198 170 188 178 160 160 154 154 140 138 137 138 157 202 184 184 190 177 194 187 182 183 188 191 192 144 190 188 188 182 169 211 187 212 189 194 215 205 219 228 239 244 200 217 208 205
126 190 129 185 198 174 195 202 183 135 139 172 135 197 193 192 188 185 179 184 185 186 195 174 177 179 182 175 170 214 210 199 182 189 205 197 198 210 233 232 214 198 242 237 228 240 224
163 199 180 173 160 191 174 169 199 189 186 192 186 183 158 160 182 171 171 165 176 174 161 178 130 193 178 171 196 204 197 201 196 178 190 192 218 234 225 216 228 232 233 193 188 189 253
162 187 174 155 166 168 178 169 183 175 181 176 179 168 173 173 164 167 163 161 176 187 188 173 198 181 171 172 185 183 169 189 186 163 192 205 202 199 193 198 177 217 241 241 250 251 255
168 192 172 128 192 172 143 141 146 173 159 182 183 177 176 188 168 179 184 157 178 192 173 169 171 190 188 180 178 197 189 194 205 207 210 182 205 181 180 209 205 187 243 242 247 244 244
184 175 180 140 179 183 188 143 161 182 172 118 118 166 193 169 162 168 171 171 144 190 173 165 188 188 187 186 188 189 194 180 173 214 217 224 212 202 232 233 236 231 240 250 244 246 260
152 157 160 165 171 176 183 167 175 188 166 169 175 178 195 181 184 186 166 168 181 177 170 192 183 179 192 186 174 167 186 204 203 181 221 232 223 216 207 218 241 226 249 254 252 250 267
165 171 175 151 154 166 177 196 176 169 201 192 163 174 178 175 185 171 191 191 173 192 183 185 159 174 182 203 176 184 183 200 161 194 203 198 228 220 211 231 250 240 252 259 253 250 234
151 166 151 176 160 195 191 175 199 186 172 151 165 175 184 166 178 172 185 191 191 184 188 179 196 173 195 188 206 176 165 214 186 219 223 234 165 215 246 236 232 249 249 230 242 249 255
159 165 158 163 162 199 197 167 206 172 171 197 195 174 184 181 172 185 184 184 186 190 173 193 181 165 181 215 205 187 188 186 185 184 224 219 246 201 240 246 248 248 235 244 245 248 249
160 173 151 164 171 143 202 172 205 184 194 193 194 184 186 181 182 174 185 183 187 181 178 183 191 221 202 189 197 195 184 182 225 198 198 176 219 231 237 248 235 255 245 245 245 244 246
162 159 163 185 171 181 210 169 194 191 201 192 190 186 191 184 184 186 188 186 187 175 195 178 192 199 198 160 196 185 201 201 188 208 177 234 239 241 256 208 199 152 137 242 240 248 259
166 190 158 198 125 190 192 187 185 205 198 193 201 193 181 180 186 197 184 170 177 187 184 184 197 196 183 188 205 222 164 209 234 229 211 239 236 261 273 261 255 241 252 247 247 262 277
178 153 182 162 187 173 196 186 209 206 199 192 200 200 192 187 205 206 201 184 199 183 198 204 210 176 189 203 195 201 212 184 219 219 226 238 246 260 262 268 270 281 279 279 281 283 295
179 191 181 190 179 177 176 201 190 206 208 194 197 180 194 190 197 169 198 186 199 154 205 201 192 194 176 176 170 172 209 229 201 225 245 246 260 263 267 192 314 316 309 327 348 367 305
180 192 182 189 196 177 196 173 203 179 190 208 196 187 195 198 175 174 184 204 185 198 188 202 178 189 189 168 210 211 215 206 227 247 243 260 271 308 314 321 350 333 312 318 315 314 329
180 181 193 190 191 178 193 195 208 182 200 191 198 173 187 189 187 195 200 193 185 195 170 196 193 155 206 203 199 236 205 221 238 244 261 309 319 337 307 307 328 443 439 443 448 529 567
186 187 181 171 164 202 200 162 194 195 182 189 197 192 182 177 191 194 193 204 193 162 201 171 170 186 170 220 224 216 220 237 250 296 334 355 325 322 324 347 423 414 402 423 450 456 494
164 181 165 178 175 192 152 183 156 181 197 195 196 185 191 199 140 199 196 172 207 190 183 181 205 167 206 202 228 226 234 240 274 342 322 322 326 311 420 410 394 396 392 392 406 427 446
183 196 177 119 187 139 179 195 178 194 189 196 183 177 181 182 196 188 192 199 199 203 201 171 186 187 198 221 223 242 236 326 338 320 325 325 412 395 389 388 395 387 379 379 386 404 411
192 193 190 186 165 207 190 193 172 186 164 187 183 198 198 185 185 153 167 198 209 210 161 201 179 201 223 233 244 253 336 342 319 332 411 401 387 381 409 404 393 382 367 368 369 387 383
193 192 166 199 193 192 199 175 187 198 194 175 193 185 178 165 196 188 187 198 206 175 193 179 220 232 237 233 264 337 336 318 322 412 401 381 370 382 384 377 372 376 377 374 396 382 387
186 181 190 173 186 189 172 193 180 185 204 193 198 191 201 199 174 196 211 194 198 200 205 202 229 231 234 256 338 328 316 327 414 393 378 371 379 376 371 378 397 395 413 433 411 393 381
201 188 211 186 168 184 182 198 172 203 195 193 206 191 216 164 154 213 186 201 194 209 210 195 224 232 244 347 328 312 424 413 388 381 371 377 375 368 377 376 385 388 391 399 416 422 400
Wind_Speed
23 30 33 29 28 29 32 33 35 33 37 38 40 40 42 45 43 47 49 49 48 47 38 26 33 23 25 20 19 19 19 20 21 31 27 29 24 30 40 41 44 45 49 47 44 41 47
20 25 28 21 23 28 31 31 33 34 34 34 37 41 43 44 45 46 46 46 32 26 26 26 24 33 29 27 25 28 31 22 26 36 38 37 34 30 33 36 39 37 40 38 44 45 43
20 21 21 22 25 27 28 31 32 32 33 34 35 39 40 41 42 43 28 22 28 28 37 31 31 30 31 31 38 35 32 38 39 36 38 42 37 44 37 44 43 44 46 46 48 49 50
21 19 19 21 22 23 26 28 28 32 34 35 36 37 39 38 37 23 34 36 38 33 33 36 35 38 37 37 39 39 40 45 41 48 41 48 47 45 42 41 50 53 52 55 51 53 50
16 16 19 23 21 21 23 25 27 29 30 31 32 33 22 27 35 35 36 32 39 37 39 39 40 40 39 46 44 43 42 41 51 52 53 49 51 52 52 52 51 53 56 59 58 60 56
18 19 22 17 21 27 26 28 28 27 27 27 29 33 28 34 32 29 38 34 37 39 40 44 46 46 42 48 48 51 49 46 50 50 55 54 54 57 60 56 55 52 55 60 67 68 55
25 21 24 19 22 23 23 25 24 30 33 34 33 24 25 30 29 36 37 42 42 43 41 45 48 50 53 47 48 49 50 55 60 63 58 64 61 59 55 57 66 64 58 59 62 63 68
24 25 22 25 27 27 25 26 24 27 26 26 29 29 40 41 36 39 41 42 47 50 49 55 45 51 44 53 54 55 58 57 58 58 64 61 59 57 59 67 61 61 63 62 58 62 63
30 31 27 29 31 28 28 28 32 33 34 36 36 37 37 38 43 42 44 45 47 46 49 45 49 57 61 63 61 63 61 65 60 58 61 65 68 71 69 64 58 62 68 68 68 68 66
35 29 33 34 28 32 40 38 38 35 37 33 35 39 42 41 45 48 49 51 55 50 57 61 61 56 58 63 64 63 67 66 63 61 63 64 74 64 64 74 76 68 71 73 71 71 68
37 34 34 37 34 30 34 37 39 42 34 42 39 43 43 48 51 51 54 52 55 52 61 63 57 58 61 62 66 68 69 72 70 62 61 67 70 73 66 69 70 72 73 72 75 77 77
34 40 36 39 38 38 39 40 36 42 42 39 42 45 51 48 49 53 54 57 58 57 65 61 63 66 67 68 76 74 77 71 69 71 65 65 64 70 78 74 75 77 75 73 73 73 73
42 43 44 40 40 45 44 50 45 46 47 50 43 48 52 51 54 54 57 57 61 60 61 63 68 68 72 72 79 79 84 77 60 77 73 81 69 71 81 81 79 78 80 80 75 75 73
41 45 41 49 46 64 62 47 64 53 51 51 49 49 58 50 57 54 59 61 63 61 67 66 73 75 75 77 71 88 73 84 90 80 79 73 65 73 81 79 84 82 81 85 89 83 79
47 54 45 49 49 53 67 52 63 53 53 58 57 52 60 61 58 65 63 63 66 70 71 73 72 79 79 71 76 88 90 93 94 88 85 81 82 81 89 87 87 83 83 86 91 89 88
55 63 51 56 59 49 62 54 61 57 57 60 61 59 64 64 66 61 67 66 69 68 69 73 73 78 72 79 80 86 96 95 92 82 91 86 78 77 91 92 88 90 89 90 91 95 91
62 58 59 81 61 67 57 56 64 62 57 59 62 64 65 65 68 70 70 68 70 71 72 76 73 78 76 64 86 95 91 98 85 97 92 108 106 93 97 63 67 54 52 98 99 100 105
63 71 50 79 53 71 73 70 66 61 55 58 65 62 63 65 70 73 69 68 71 74 75 76 76 75 80 92 95 105 67 99 108 108 94 116 116 111 96 94 100 95 100 102 106 107 105
84 51 75 51 83 69 71 79 64 57 61 61 63 63 66 68 71 72 73 75 80 78 80 85 90 72 84 98 96 99 105 89 106 102 114 119 121 117 105 102 104 105 106 109 111 110 107
91 80 89 76 80 74 67 75 71 63 61 65 62 64 65 63 69 69 76 77 77 72 86 84 78 85 96 98 88 90 109 118 102 120 129 127 124 121 118 60 109 104 103 105 105 97 90
94 87 90 90 84 72 83 59 64 58 68 66 65 64 68 70 67 74 74 83 75 81 74 94 92 88 104 89 116 111 116 106 127 132 131 130 124 117 115 112 109 101 96 92 94 96 95
94 91 92 94 85 75 79 76 68 65 73 68 71 67 70 74 71 77 86 73 77 88 92 87 91 64 115 106 113 124 105 122 132 135 131 120 116 110 101 101 102 60 58 54 54 39 45
96 96 68 71 46 80 79 47 68 77 71 75 76 74 72 66 80 80 82 96 89 78 96 97 86 103 91 127 126 117 124 136 134 124 116 110 105 101 98 87 57 56 58 51 40 38 30
62 84 71 87 67 91 55 78 64 72 85 82 79 75 81 86 57 89 88 83 102 99 97 99 115 85 118 115 134 135 138 137 132 115 110 104 102 100 56 55 55 54 49 47 41 32 26
96 96 83 47 87 57 83 90 65 87 76 84 80 72 72 69 92 75 90 99 105 108 103 93 102 106 115 138 135 136 139 119 113 110 107 105 56 57 58 52 49 47 47 42 39 30 31
96 97 94 93 57 86 87 90 60 85 64 85 77 93 93 73 77 76 78 102 114 119 79 116 103 120 141 143 139 142 119 110 108 105 56 55 56 56 47 44 39 38 43 44 40 36 37
98 98 51 97 95 92 86 65 84 92 90 62 92 79 73 78 91 98 92 107 117 97 109 100 142 140 139 139 139 117 110 107 105 50 47 49 54 50 45 44 41 39 38 42 37 37 38
69 91 78 70 93 94 66 94 80 86 92 94 96 91 102 96 79 103 117 102 114 117 132 123 138 138 141 139 115 110 108 103 45 50 48 48 45 41 40 37 30 30 26 28 35 39 38
104 94 91 93 56 87 81 94 69 96 94 95 98 87 103 87 74 117 91 116 111 131 137 88 124 138 141 112 108 107 47 44 47 46 45 43 40 39 36 31 28 26 26 24 26 40 43
Wind_Direction
276 277 279 274 270 271 271 272 271 273 274 273 277 286 288 287 293 294 294 296 299 301 307 315 300 318 305 304 314 305 309 297 301 281 288 285 292 286 279 279 276 271 267 266 262 260 263
278 276 272 268 269 263 282 277 273 277 278 279 283 283 286 287 291 294 297 298 311 318 313 313 320 300 299 304 298 291 286 294 298 282 280 282 297 290 283 284 286 285 271 276 270 263 259
298 292 289 283 280 276 273 276 277 282 284 283 288 286 290 290 293 296 313 328 309 311 302 309 310 308 310 304 289 315 303 279 277 301 273 276 295 276 276 295 274 273 272 276 277 274 273
288 295 295 292 289 284 281 279 281 280 282 284 285 288 289 294 303 314 301 301 301 313 319 324 310 314 281 304 310 306 308 311 300 307 283 305 272 293 285 292 278 271 273 268 282 283 278
329 317 299 290 288 288 291 290 290 291 293 293 294 297 299 300 292 296 297 310 300 310 304 300 309 307 282 310 304 302 302 299 308 303 303 296 290 296 298 294 289 287 287 274 274 278 266
299 336 296 316 297 283 290 286 287 289 288 288 292 298 299 300 301 308 300 316 311 308 310 312 309 309 279 309 309 309 303 286 298 296 292 298 292 294 290 291 290 290 290 286 282 280 276
275 325 283 310 330 294 323 331 308 287 291 294 297 310 309 311 307 309 306 315 313 310 308 305 307 308 308 302 296 311 304 300 302 301 293 298 295 295 298 293 288 290 289 284 285 280 278
295 332 316 301 281 323 307 301 317 309 309 316 304 304 296 294 311 303 300 300 309 308 296 307 284 305 303 302 305 308 302 303 302 298 298 296 299 302 296 291 292 290 292 284 283 280 282
315 327 312 306 299 311 311 299 316 308 309 312 310 302 309 303 299 301 298 296 301 298 304 298 307 299 305 302 304 303 296 302 299 288 299 293 295 296 298 296 291 296 293 290 289 286 283
307 333 311 285 333 304 281 289 281 307 295 301 303 304 302 296 302 300 298 295 299 298 296 299 298 300 302 301 303 308 302 302 304 300 297 300 294 302 300 297 298 296 295 292 288 286 284
304 306 313 285 312 316 331 291 295 314 307 288 290 301 295 297 299 299 297 296 289 297 293 296 301 303 306 303 305 299 298 297 302 309 307 311 301 299 311 305 301 299 297 290 288 286 284
283 294 294 302 303 307 310 297 305 316 293 297 306 307 306 301 298 303 297 301 299 295 294 307 296 297 308 299 296 298 296 299 303 303 317 313 308 303 300 307 303 296 297 291 286 286 283
294 299 299 285 292 301 304 323 303 295 311 301 293 304 304 301 306 302 304 303 296 306 297 301 296 299 298 303 295 297 296 311 303 297 298 296 315 309 299 305 306 302 298 293 291 286 285
280 290 288 299 294 319 317 306 324 315 298 290 294 305 305 294 303 301 306 308 309 302 306 297 306 295 305 299 303 295 302 317 298 316 316 317 307 302 314 310 305 300 296 296 293 292 288
287 292 288 292 294 308 317 298 320 301 300 304 301 300 303 303 301 304 306 308 308 307 296 305 298 294 297 314 308 294 294 296 298 303 318 307 318 303 316 311 306 300 298 295 292 290 288
287 296 281 295 301 282 309 299 316 308 304 304 300 303 302 301 302 300 304 305 305 301 299 302 304 315 311 298 304 303 293 297 319 311 309 306 312 313 316 311 305 297 299 295 294 291 290
287 287 294 306 303 306 305 300 312 309 301 302 299 299 300 300 300 300 302 303 303 297 307 300 304 312 315 305 307 296 303 302 314 308 306 319 317 318 314 303 300 291 292 296 294 294 292
287 296 289 303 274 304 309 310 310 305 297 299 295 296 298 299 299 298 298 295 297 304 300 299 310 309 293 291 311 323 308 310 318 318 308 316 316 315 310 307 302 299 297 292 290 290 288
293 286 296 287 301 301 305 310 304 302 303 303 299 299 298 300 301 301 300 299 300 302 312 312 319 303 296 318 310 310 318 314 316 311 317 315 315 313 311 304 299 295 293 291 288 286 286
294 292 295 294 298 300 306 307 306 301 292 304 301 297 302 300 304 293 303 299 302 299 318 318 309 310 295 296 308 303 310 317 309 317 314 315 314 310 308 297 296 292 289 288 285 282 282
291 290 294 295 298 297 303 290 302 305 305 296 305 300 305 303 296 296 302 310 297 315 304 319 293 304 301 307 318 311 313 309 316 313 316 313 309 304 301 298 294 293 290 285 283 282 279
289 292 292 294 297 300 300 301 298 308 302 306 305 296 301 301 305 311 311 312 301 305 293 315 308 310 317 311 306 315 309 318 314 315 313 306 303 300 301 299 295 293 288 285 277 271 259
285 287 284 290 285 297 294 288 300 302 304 305 305 305 301 297 308 313 315 315 315 312 314 293 311 304 308 319 316 313 317 314 314 310 305 302 303 302 300 299 298 295 290 288 284 277 273
279 282 281 290 291 298 269 302 296 303 304 302 306 304 308 310 295 311 317 313 315 312 300 295 317 308 309 311 315 315 314 315 313 308 308 307 305 304 303 301 298 296 294 290 285 278 270
282 286 287 291 294 280 294 301 301 302 299 303 305 302 304 307 311 312 315 315 316 312 312 303 302 308 309 314 314 311 315 312 310 310 310 308 306 305 302 302 300 297 294 291 285 277 275
281 283 286 289 290 289 298 296 297 305 289 302 304 305 306 310 306 301 299 316 314 317 310 316 308 311 313 312 311 313 313 312 311 311 307 308 307 305 305 307 303 295 294 293 290 276 270
279 281 292 287 289 292 294 297 299 296 298 300 305 305 304 301 308 308 312 316 317 307 310 307 313 313 310 312 314 314 313 314 313 308 312 307 309 309 310 307 303 300 293 287 273 276 268
279 281 281 286 289 289 292 293 294 299 296 303 302 303 303 310 296 310 311 310 314 315 313 308 312 309 309 313 314 314 314 313 312 312 313 311 311 308 306 308 308 305 300 289 269 268 268
272 277 278 283 282 288 292 288 297 294 301 300 299 305 302 291 305 308 305 315 313 313 310 314 309 309 310 314 314 315 315 313 313 312 313 315 313 312 319 322 322 320 314 306 288 264 262